| time (UTC) | temp F | wind direction | speed MPH | gust MPH | rain 1hr in | rain 24hr in | rain mn in | humidity % | barometer mb |
| 20260503202036 | 56 | 293 | 11.0 | 18.0 | 0.00 | 0.00 | 0.00 | 34 | 1004.0 |
| 20260503201036 | 56 | 293 | 11.0 | 20.0 | 0.00 | 0.00 | 0.00 | 34 | 1004.3 |
| 20260503200036 | 56 | 293 | 9.0 | 17.0 | 0.00 | 0.00 | 0.00 | 34 | 1004.4 |
| 20260503195036 | 56 | 293 | 9.0 | 16.0 | 0.00 | 0.00 | 0.00 | 37 | 1004.5 |
| 20260503194036 | 56 | 293 | 9.0 | 16.0 | 0.00 | 0.00 | 0.00 | 32 | 1004.6 |
| 20260503193036 | 56 | 293 | 7.0 | 16.0 | 0.00 | 0.00 | 0.00 | 39 | 1004.5 |
| 20260503192035 | 56 | 293 | 9.0 | 14.0 | 0.00 | 0.00 | 0.00 | 39 | 1004.5 |
| 20260503191036 | 56 | 293 | 10.0 | 18.0 | 0.00 | 0.00 | 0.00 | 36 | 1004.7 |
| 20260503190016 | 55 | 293 | 9.0 | 15.0 | 0.00 | 0.00 | 0.00 | 42 | 1004.7 |
| 20260503185036 | 55 | 315 | 5.0 | 10.0 | 0.00 | 0.00 | 0.00 | 38 | 1004.7 |
| 20260503184017 | 55 | 293 | 6.0 | 11.0 | 0.00 | 0.00 | 0.00 | 41 | 1005.0 |
| 20260503183017 | 54 | 315 | 8.0 | 16.0 | 0.00 | 0.00 | 0.00 | 40 | 1004.9 |
| 20260503182016 | 54 | 315 | 8.0 | 12.0 | 0.00 | 0.00 | 0.00 | 40 | 1005.0 |
| 20260503181017 | 54 | 315 | 5.0 | 10.0 | 0.00 | 0.00 | 0.00 | 42 | 1005.1 |
| 20260503180017 | 54 | 315 | 8.0 | 17.0 | 0.00 | 0.00 | 0.00 | 39 | 1005.1 |
| 20260503175018 | 55 | 293 | 6.0 | 13.0 | 0.00 | 0.00 | 0.00 | 41 | 1005.3 |
| 20260503174017 | 54 | 315 | 6.0 | 14.0 | 0.00 | 0.00 | 0.00 | 44 | 1005.4 |
| 20260503173018 | 54 | 315 | 7.0 | 16.0 | 0.00 | 0.00 | 0.00 | 43 | 1005.3 |
| 20260503172017 | 53 | 315 | 8.0 | 17.0 | 0.00 | 0.00 | 0.00 | 42 | 1005.4 |
| 20260503171017 | 53 | 315 | 4.0 | 10.0 | 0.00 | 0.00 | 0.00 | 44 | 1005.8 |
| 20260503131016 | 46 | 293 | 3.0 | 7.0 | 0.00 | 0.00 | 0.00 | 87 | 1005.9 |
| 20260503081018 | 41 | 0.0 | 0.0 | 0.00 | 0.00 | 0.00 | 89 | 1006.6 | |
| 20260503072036 | 45 | 0.0 | 0.0 | 0.00 | 0.00 | 0.00 | 84 | 1007.0 | |
| 20260503071036 | 45 | 0.0 | 0.0 | 0.00 | 0.00 | 0.00 | 83 | 1006.9 | |
| 20260503055036 | 47 | 0.0 | 1.0 | 0.00 | 0.00 | 0.00 | 81 | 1007.6 | |
| 20260503054016 | 48 | 0.0 | 1.0 | 0.00 | 0.00 | 0.00 | 81 | 1007.6 | |
| 20260503053016 | 48 | 270 | 1.0 | 2.0 | 0.00 | 0.00 | 0.00 | 80 | 1007.7 |
| 20260503052036 | 49 | 293 | 1.0 | 4.0 | 0.00 | 0.00 | 0.00 | 80 | 1007.7 |
| 20260503051015 | 48 | 315 | 1.0 | 3.0 | 0.00 | 0.00 | 0.00 | 77 | 1007.7 |
| 20260503050035 | 48 | 293 | 2.0 | 3.0 | 0.00 | 0.00 | 0.00 | 79 | 1007.6 |
| 20260503045036 | 50 | 293 | 2.0 | 5.0 | 0.00 | 0.00 | 0.00 | 77 | 1007.7 |
| 20260503044016 | 50 | 270 | 2.0 | 5.0 | 0.00 | 0.00 | 0.00 | 76 | 1007.6 |
| 20260503043036 | 50 | 248 | 3.0 | 6.0 | 0.00 | 0.00 | 0.00 | 75 | 1007.6 |
| 20260503042016 | 50 | 248 | 4.0 | 10.0 | 0.00 | 0.00 | 0.00 | 75 | 1007.7 |
| 20260503041016 | 50 | 270 | 3.0 | 7.0 | 0.00 | 0.00 | 0.00 | 76 | 1007.7 |
| 20260503040036 | 47 | 270 | 2.0 | 5.0 | 0.00 | 0.00 | 0.00 | 72 | 1007.6 |
| 20260503035036 | 47 | 0.0 | 2.0 | 0.00 | 0.00 | 0.00 | 60 | 1007.8 | |
| 20260503034016 | 47 | 0.0 | 1.0 | 0.00 | 0.00 | 0.00 | 59 | 1007.5 | |
| 20260503033016 | 47 | 0.0 | 1.0 | 0.00 | 0.00 | 0.00 | 57 | 1007.7 | |
| 20260503032016 | 47 | 0.0 | 1.0 | 0.00 | 0.00 | 0.00 | 56 | 1007.8 | |
| 20260503031016 | 47 | 270 | 1.0 | 2.0 | 0.00 | 0.00 | 0.00 | 56 | 1007.6 |
| 20260503030016 | 47 | 270 | 1.0 | 4.0 | 0.00 | 0.00 | 0.00 | 57 | 1007.7 |
| 20260503025016 | 47 | 135 | 1.0 | 4.0 | 0.00 | 0.00 | 0.00 | 55 | 1007.6 |
| 20260503024036 | 47 | 0.0 | 3.0 | 0.00 | 0.00 | 0.00 | 55 | 1007.6 | |
| 20260503023016 | 48 | 135 | 3.0 | 5.0 | 0.00 | 0.00 | 0.00 | 54 | 1007.5 |
| 20260503022036 | 47 | 158 | 1.0 | 3.0 | 0.00 | 0.00 | 0.00 | 54 | 1007.7 |
| 20260503021016 | 47 | 45 | 2.0 | 4.0 | 0.00 | 0.00 | 0.00 | 54 | 1007.6 |
| 20260503020016 | 49 | 113 | 1.0 | 5.0 | 0.00 | 0.00 | 0.00 | 52 | 1007.8 |
| 20260503015016 | 49 | 135 | 2.0 | 6.0 | 0.00 | 0.00 | 0.00 | 51 | 1007.5 |
| 20260503014036 | 50 | 135 | 4.0 | 8.0 | 0.00 | 0.00 | 0.00 | 50 | 1007.6 |
| 20260503013036 | 51 | 135 | 3.0 | 8.0 | 0.00 | 0.00 | 0.00 | 49 | 1007.6 |
| 20260503012016 | 53 | 135 | 3.0 | 11.0 | 0.00 | 0.00 | 0.00 | 50 | 1007.7 |
| 20260503011016 | 54 | 0.0 | 1.0 | 0.00 | 0.00 | 0.00 | 49 | 1007.7 | |
| 20260503010036 | 54 | 0.0 | 2.0 | 0.00 | 0.00 | 0.00 | 49 | 1007.7 | |
| 20260503005036 | 57 | 0.0 | 0.0 | 0.00 | 0.00 | 0.00 | 45 | 1007.9 | |
| 20260503004016 | 57 | 0.0 | 2.0 | 0.00 | 0.00 | 0.00 | 45 | 1007.8 | |
| 20260503003016 | 57 | 0.0 | 0.0 | 0.00 | 0.00 | 0.00 | 48 | 1008.0 | |
| 20260503002016 | 57 | 0.0 | 0.0 | 0.00 | 0.00 | 0.00 | 47 | 1008.1 | |
| 20260503001015 | 57 | 0.0 | 1.0 | 0.00 | 0.00 | 0.00 | 45 | 1008.1 | |
| 20260503000015 | 57 | 0.0 | 1.0 | 0.00 | 0.00 | 0.00 | 45 | 1008.2 | |
| 20260502235015 | 57 | 0.0 | 2.0 | 0.00 | 0.00 | 0.00 | 44 | 1008.4 | |
| 20260502234016 | 58 | 248 | 2.0 | 6.0 | 0.00 | 0.00 | 0.00 | 43 | 1008.2 |
| 20260502233015 | 57 | 225 | 1.0 | 3.0 | 0.00 | 0.00 | 0.00 | 42 | 1008.2 |
| 20260502232015 | 57 | 270 | 1.0 | 3.0 | 0.00 | 0.00 | 0.00 | 47 | 1008.5 |
| 20260502231056 | 58 | 270 | 3.0 | 8.0 | 0.00 | 0.00 | 0.00 | 43 | 1008.5 |
| 20260502230015 | 59 | 270 | 2.0 | 5.0 | 0.00 | 0.00 | 0.00 | 40 | 1008.6 |
| 20260502225015 | 59 | 248 | 3.0 | 9.0 | 0.00 | 0.00 | 0.00 | 40 | 1008.6 |
| 20260502224016 | 59 | 293 | 3.0 | 6.0 | 0.00 | 0.00 | 0.00 | 45 | 1008.7 |
| 20260502223035 | 60 | 293 | 3.0 | 5.0 | 0.00 | 0.00 | 0.00 | 45 | 1008.8 |
| 20260502222016 | 60 | 293 | 3.0 | 6.0 | 0.00 | 0.00 | 0.00 | 40 | 1008.9 |
| 20260502221017 | 60 | 270 | 4.0 | 8.0 | 0.00 | 0.00 | 0.00 | 38 | 1009.0 |
| 20260502220017 | 61 | 293 | 3.0 | 8.0 | 0.00 | 0.00 | 0.00 | 39 | 1009.1 |
| 20260502215018 | 61 | 248 | 5.0 | 9.0 | 0.00 | 0.00 | 0.00 | 36 | 1009.4 |
| 20260502214017 | 60 | 248 | 4.0 | 9.0 | 0.00 | 0.00 | 0.00 | 37 | 1009.5 |
| 20260502213017 | 59 | 293 | 4.0 | 7.0 | 0.00 | 0.00 | 0.00 | 40 | 1009.4 |
| 20260502212037 | 58 | 315 | 1.0 | 3.0 | 0.00 | 0.00 | 0.00 | 43 | 1009.6 |
| 20260502211017 | 59 | 293 | 4.0 | 7.0 | 0.00 | 0.00 | 0.00 | 39 | 1009.7 |
| 20260502210018 | 57 | 293 | 5.0 | 10.0 | 0.00 | 0.00 | 0.00 | 42 | 1009.8 |
| 20260502205017 | 56 | 315 | 2.0 | 4.0 | 0.00 | 0.00 | 0.00 | 41 | 1010.0 |
| 20260502204017 | 57 | 293 | 3.0 | 5.0 | 0.00 | 0.00 | 0.00 | 43 | 1010.2 |
| 20260502203017 | 59 | 293 | 4.0 | 8.0 | 0.00 | 0.00 | 0.00 | 40 | 1010.5 |